Temperature
8 8 8 7 7 7 7 7 7 7 7 6 6 6 6 6 6 5 5 5 5 5 5 4 4 4 4 3 3 3 3 2 2 2 2 2 2 2 2 2 2 3 3
8 8 7 7 7 7 7 7 6 6 6 6 6 6 6 5 5 5 5 5 4 4 4 4 4 4 3 3 3 3 2 2 2 1 2 2 2 2 2 2 2 2 2
7 7 7 7 7 6 6 6 6 6 6 6 6 5 5 5 5 5 4 4 4 4 4 3 3 3 3 3 2 2 2 1 1 1 1 1 1 1 1 1 1 1 1
7 7 7 7 6 6 6 6 6 6 5 5 5 5 5 5 4 4 4 4 4 3 3 3 3 3 2 2 2 1 1 1 1 0 0 0 0 0 0 0 0 1 1
7 7 6 6 6 6 6 6 5 5 5 5 5 5 4 4 4 4 4 3 3 3 3 3 2 2 2 2 1 1 0 0 -0 -0 -1 -1 -1 -1 -1 -1 -1 -1 -0
6 6 6 6 6 6 6 5 5 5 5 5 5 4 4 4 4 4 3 3 3 3 2 2 2 2 1 1 1 1 0 -0 -1 -1 -1 -1 -1 -2 -2 -2 -2 -2 -2
6 6 6 6 5 5 5 5 5 5 4 4 4 4 4 4 3 3 3 3 2 2 2 2 1 1 1 1 0 0 -0 -1 -1 -2 -2 -2 -2 -2 -2 -2 -3 -3 -3
5 5 5 5 5 5 5 5 4 4 4 4 4 4 3 3 3 3 2 2 2 2 2 1 1 1 1 0 -0 -1 -1 -1 -1 -2 -2 -2 -2 -3 -3 -3 -3 -3 -3
5 5 5 4 4 4 4 4 4 4 4 3 3 3 3 3 3 2 2 2 1 1 1 1 1 0 0 -0 -1 -1 -1 -1 -2 -2 -2 -3 -3 -3 -3 -3 -4 -4 -4
5 4 4 4 4 4 4 4 3 3 3 3 3 3 3 2 2 2 1 1 1 1 1 1 0 0 -0 -1 -1 -2 -2 -2 -2 -3 -3 -3 -3 -3 -3 -4 -4 -4 -5
4 4 4 4 3 3 3 3 3 3 3 2 2 2 2 2 2 1 1 1 0 0 0 0 -0 -0 -1 -1 -2 -2 -2 -3 -3 -3 -3 -3 -4 -4 -4 -4 -4 -5 -5
4 4 3 3 3 3 3 2 2 2 2 2 2 2 2 2 1 1 1 0 -0 -0 -0 -1 -1 -1 -1 -2 -2 -3 -3 -3 -4 -4 -4 -4 -4 -4 -4 -4 -5 -5 -5
3 3 3 3 3 3 2 2 2 2 2 1 1 1 1 1 1 1 0 -0 -1 -1 -1 -1 -2 -2 -2 -2 -3 -3 -4 -4 -4 -4 -4 -4 -4 -5 -5 -5 -5 -5 -5
3 3 3 2 2 2 2 2 1 1 1 1 1 1 0 0 0 -0 -1 -1 -1 -1 -2 -2 -2 -2 -3 -3 -3 -4 -4 -4 -5 -5 -5 -5 -5 -5 -5 -5 -6 -6 -6
2 2 2 2 2 2 1 1 1 1 1 0 0 0 -0 -0 -0 -1 -1 -1 -2 -2 -2 -3 -3 -3 -3 -3 -4 -4 -4 -5 -5 -5 -5 -5 -6 -6 -6 -6 -6 -6 -6
2 2 2 1 1 1 1 1 1 0 0 0 -0 -1 -1 -1 -1 -1 -1 -2 -2 -3 -3 -3 -3 -4 -4 -4 -4 -4 -4 -5 -5 -5 -6 -6 -6 -6 -6 -6 -6 -7 -7
1 1 1 1 1 0 0 -0 -0 -0 -0 -0 -1 -1 -1 -1 -1 -2 -2 -2 -3 -3 -3 -3 -3 -4 -4 -4 -4 -4 -5 -5 -5 -6 -6 -6 -6 -6 -6 -7 -7 -7 -7
1 1 0 0 0 -0 -0 -1 -1 -1 -1 -1 -1 -1 -2 -2 -2 -2 -2 -3 -3 -3 -4 -4 -4 -4 -4 -4 -4 -5 -5 -5 -5 -6 -6 -6 -6 -7 -7 -7 -7 -7 -7
0 0 -0 -0 -1 -1 -1 -1 -1 -1 -2 -2 -2 -2 -2 -2 -2 -2 -3 -3 -4 -4 -4 -4 -4 -4 -4 -4 -5 -5 -5 -5 -6 -6 -6 -6 -7 -7 -7 -7 -7 -8 -8
-0 -0 -1 -1 -1 -1 -1 -2 -2 -2 -2 -2 -2 -2 -3 -3 -3 -3 -3 -4 -4 -4 -4 -4 -4 -5 -5 -5 -5 -5 -5 -6 -6 -6 -6 -7 -7 -7 -7 -7 -8 -8 -8
-0 -1 -1 -1 -1 -2 -2 -2 -2 -2 -2 -2 -3 -3 -3 -4 -4 -4 -4 -4 -4 -4 -5 -5 -5 -5 -5 -5 -5 -5 -6 -6 -6 -6 -6 -7 -7 -7 -7 -8 -8 -8 -8
-1 -1 -1 -1 -2 -2 -2 -2 -2 -3 -3 -3 -3 -3 -3 -4 -4 -4 -4 -4 -5 -5 -5 -5 -5 -5 -5 -5 -6 -6 -6 -6 -6 -6 -7 -7 -7 -7 -8 -8 -8 -8 -9
-2 -2 -2 -2 -2 -2 -2 -2 -3 -3 -3 -3 -3 -3 -4 -4 -4 -4 -5 -5 -5 -5 -5 -5 -5 -5 -6 -6 -6 -6 -6 -6 -6 -7 -7 -7 -7 -8 -8 -8 -8 -9 -9
-2 -2 -2 -2 -3 -3 -3 -3 -3 -3 -3 -3 -4 -4 -4 -4 -4 -5 -5 -5 -5 -5 -5 -5 -6 -6 -6 -6 -6 -6 -6 -6 -7 -7 -7 -7 -8 -8 -8 -8 -9 -9 -9
-2 -3 -3 -3 -3 -3 -3 -3 -3 -3 -3 -4 -4 -4 -4 -4 -5 -5 -5 -5 -5 -5 -5 -6 -6 -6 -6 -6 -6 -6 -6 -7 -7 -7 -7 -8 -8 -8 -8 -9 -9 -9 -9
-3 -3 -3 -3 -3 -3 -3 -3 -3 -4 -4 -4 -4 -4 -4 -5 -5 -5 -5 -5 -5 -5 -6 -6 -6 -6 -6 -6 -6 -7 -7 -7 -7 -7 -8 -8 -8 -8 -9 -9 -9 -9 -9
Wind_Speed
5 5 5 5 5 6 6 6 6 5 5 5 5 5 5 5 5 5 5 4 4 4 4 4 4 4 3 3 3 4 4 5 7 6 5 6 7 7 7 8 8 8 7
4 5 5 5 5 6 6 6 6 6 6 6 6 6 6 6 5 6 6 5 6 6 5 5 5 4 5 4 4 4 4 5 6 8 7 6 7 7 7 7 7 7 7
3 4 5 5 5 6 6 6 6 6 6 6 6 7 7 6 6 6 7 6 6 6 6 6 6 6 6 5 5 5 4 5 5 7 7 6 6 5 7 7 7 6 7
3 4 5 5 5 6 6 5 5 6 6 6 6 7 7 7 7 7 7 7 7 7 7 7 7 7 7 6 5 6 5 5 6 6 6 6 5 5 5 6 7 7 6
4 4 5 5 5 5 5 5 5 5 6 6 6 6 7 6 7 7 7 7 8 7 7 7 7 7 8 7 6 6 6 5 5 5 6 6 5 5 5 5 7 8 7
4 4 4 4 4 5 5 5 5 5 5 6 6 6 7 6 7 9 8 7 7 8 8 7 7 8 9 11 10 9 8 7 7 6 6 7 7 6 6 6 6 7 5
4 4 4 4 4 4 4 5 5 6 5 6 6 7 7 7 8 9 10 8 8 8 8 8 6 6 8 8 9 10 10 10 10 8 8 8 7 6 7 7 7 7 7
4 4 4 4 4 4 5 5 6 5 6 6 6 7 7 7 8 9 10 9 8 8 8 8 8 8 7 8 7 8 8 8 8 8 8 8 7 6 6 7 8 8 8
5 5 4 4 5 5 5 6 6 6 6 6 6 7 7 7 8 9 9 7 7 8 8 8 9 9 9 10 9 8 8 7 7 8 8 8 7 7 6 5 5 6 6
5 5 4 5 5 6 6 6 5 6 6 6 6 6 7 7 7 8 8 6 7 7 7 8 10 11 10 10 9 9 9 7 6 6 6 7 6 6 6 6 5 5 5
4 4 5 5 5 6 6 5 5 5 6 6 6 6 6 7 7 8 9 6 7 7 7 7 6 10 11 11 11 9 9 7 6 6 5 5 5 4 4 5 5 5 5
4 5 5 5 5 4 5 5 5 5 6 6 6 6 5 5 7 8 9 10 9 8 7 7 6 8 10 11 10 10 10 8 6 5 5 5 5 4 4 4 5 6 6
5 5 5 5 5 4 5 5 5 5 5 5 5 5 5 5 5 9 10 11 11 9 7 8 8 9 9 9 10 10 9 7 6 6 6 5 5 4 4 4 4 5 7
5 5 5 5 5 5 5 5 5 5 5 6 6 6 6 5 5 5 5 6 8 8 7 7 9 9 8 8 7 7 7 6 6 6 6 5 4 3 4 4 4 4 4
6 6 5 5 5 5 5 5 6 7 7 7 6 6 6 7 7 7 6 6 6 6 6 5 6 6 6 6 6 6 5 6 6 6 5 5 4 4 4 4 4 4 4
6 6 5 4 4 5 5 5 7 9 10 12 12 10 8 10 11 11 11 11 11 10 8 7 7 7 7 7 6 6 6 6 6 6 6 5 5 5 4 4 4 5 5
7 6 5 5 5 5 5 6 6 6 9 12 13 13 13 13 13 13 12 11 11 10 8 8 7 7 7 7 7 7 7 6 5 6 6 6 5 5 5 4 4 5 5
8 7 7 6 6 6 6 6 6 6 6 6 7 10 12 12 13 12 11 9 8 8 7 8 7 7 7 7 7 7 6 6 5 6 6 5 5 5 5 5 5 5 5
7 6 6 6 6 6 6 6 6 7 7 7 6 7 8 9 11 11 9 7 7 7 7 7 7 7 7 7 6 6 6 6 6 6 6 6 5 5 6 5 5 6 6
7 8 8 6 6 6 6 7 7 7 7 7 7 7 5 5 6 6 7 7 7 7 7 7 7 7 7 7 6 6 6 6 6 6 6 6 6 6 6 6 5 5 5
6 7 8 7 7 7 7 7 7 7 8 8 8 8 9 7 7 8 7 7 7 8 7 7 7 7 7 6 6 7 7 6 6 6 6 6 5 5 5 5 5 5 5
6 6 6 7 7 7 7 7 7 8 9 9 8 8 11 8 8 8 8 8 7 7 7 6 7 6 6 6 6 7 7 6 6 6 6 5 5 5 5 5 5 4 5
7 7 7 7 7 8 8 8 8 8 8 9 8 8 7 8 8 8 8 7 7 6 6 6 6 6 5 6 6 6 7 7 6 6 6 6 5 5 5 5 5 5 5
7 7 7 7 7 7 8 8 8 8 9 8 8 8 8 8 8 8 8 7 6 6 6 6 6 7 7 6 5 6 6 6 6 6 7 6 6 5 5 5 5 5 5
7 7 7 7 7 8 8 8 8 9 8 8 8 8 8 8 8 8 7 6 7 6 6 6 5 6 8 8 7 6 8 9 8 7 6 5 6 5 5 5 4 4 4
7 8 8 7 8 8 8 8 9 9 8 8 8 8 8 7 7 7 6 6 6 5 5 5 6 6 7 7 8 9 10 10 10 10 7 5 5 5 5 4 4 4 4
Wind_Direction
226 229 233 235 235 238 242 245 246 247 245 244 242 239 239 239 239 240 244 246 247 251 249 251 252 253 252 252 253 258 260 263 271 283 289 299 304 306 310 311 311 311 310
232 232 235 237 235 238 242 245 244 245 243 240 239 239 239 238 238 240 244 244 245 248 249 249 250 248 249 251 249 252 258 259 269 281 289 296 299 306 310 312 314 312 307
237 237 240 241 240 243 246 247 245 244 244 240 237 239 241 240 239 241 243 244 245 248 249 248 248 245 248 247 247 252 258 261 262 273 285 294 297 304 311 310 311 311 310
242 240 244 247 248 251 251 248 245 242 243 243 242 243 243 242 241 240 241 243 245 246 246 246 247 245 249 252 250 251 255 258 261 267 276 286 291 302 307 311 314 317 312
247 248 253 256 254 253 252 249 246 242 243 244 245 244 242 242 240 238 239 242 245 247 246 246 246 246 250 252 253 254 254 256 259 265 274 282 288 300 306 311 308 313 309
253 257 264 263 259 255 254 252 249 249 247 245 246 246 245 243 241 240 243 244 246 248 250 249 246 242 242 243 246 251 256 259 261 263 270 274 284 292 300 302 306 311 309
255 260 262 261 260 260 258 255 254 253 251 250 251 251 251 251 246 245 243 247 248 248 249 249 246 243 240 243 241 242 246 247 254 262 268 273 283 290 294 293 293 296 293
258 261 264 263 263 264 260 258 258 255 251 251 252 254 257 256 249 249 246 246 248 249 247 247 248 248 239 238 243 246 250 251 249 252 261 272 281 283 278 282 291 294 291
258 262 264 264 265 264 261 261 260 256 254 252 253 253 255 258 249 248 248 248 249 251 249 246 245 248 243 234 240 246 251 254 248 247 259 269 275 275 277 278 283 291 295
261 264 265 263 262 263 264 264 260 256 256 257 256 255 254 259 254 249 245 249 253 255 253 248 243 245 246 237 239 243 248 252 250 248 250 252 256 259 260 263 271 277 286
266 265 264 261 261 264 266 261 257 255 257 257 259 259 255 256 255 251 248 246 251 256 255 254 247 239 242 241 242 246 247 251 252 250 253 254 256 256 256 257 259 261 267
261 262 265 265 264 260 259 259 254 252 255 258 260 264 260 254 251 252 250 250 252 253 255 256 250 239 242 244 243 242 243 244 246 244 249 253 254 256 257 260 259 260 261
257 260 265 266 261 253 250 252 252 250 252 259 260 264 268 264 257 254 255 256 253 253 256 254 252 246 247 248 244 243 240 237 236 238 246 251 253 257 259 261 261 262 264
256 262 263 262 263 257 250 244 245 248 251 255 259 263 268 267 263 258 257 258 256 255 257 250 246 245 240 241 243 240 236 236 234 240 247 251 247 242 245 252 263 270 272
254 256 257 256 259 261 257 252 250 250 249 254 257 258 262 267 262 260 264 263 260 257 256 247 242 240 237 234 231 231 229 229 234 237 240 241 242 242 246 247 254 261 263
252 255 255 256 258 260 265 269 247 249 259 256 258 260 261 262 270 267 265 264 263 259 253 244 240 238 239 238 234 230 227 227 229 229 232 235 237 240 244 244 246 255 265
247 253 256 256 258 260 261 265 277 267 252 254 255 258 261 267 270 268 267 266 261 253 247 243 240 237 237 237 236 233 232 229 225 226 228 230 232 235 239 243 246 254 264
245 246 245 251 252 254 255 258 261 269 277 274 259 257 263 269 271 268 263 263 257 245 243 244 242 239 236 236 234 232 230 226 222 223 226 226 226 229 235 240 243 251 263
243 244 242 246 248 250 253 254 256 259 263 271 277 271 263 270 271 264 255 250 249 246 244 244 242 239 236 235 232 229 226 224 222 220 223 223 222 225 234 239 243 250 258
245 239 240 246 248 249 248 249 252 255 258 263 266 271 272 269 266 261 251 250 249 248 246 245 242 237 235 232 229 226 223 222 218 219 221 221 220 223 232 236 241 248 253
247 243 234 242 246 247 248 249 251 254 257 261 264 265 262 261 260 259 256 253 250 249 248 246 243 238 233 229 225 222 220 221 219 217 219 219 218 223 230 233 238 245 254
244 246 243 243 247 246 248 249 250 252 255 261 267 267 262 258 257 257 256 255 253 251 247 243 243 240 231 224 220 218 218 218 216 213 216 216 217 221 224 228 235 244 251
244 244 245 246 247 250 252 250 250 252 255 259 263 265 262 257 257 256 257 257 255 251 246 241 240 237 228 220 217 216 216 217 214 208 209 213 214 216 218 226 233 243 250
244 244 246 249 249 249 250 251 252 253 255 258 260 261 260 258 258 257 257 258 254 250 244 237 234 230 222 218 215 214 216 213 206 206 206 208 211 214 217 225 235 243 251
246 246 247 248 249 251 253 255 255 255 255 256 259 261 262 261 258 257 255 253 248 244 239 235 230 225 220 218 216 213 212 210 209 202 197 204 210 211 216 226 235 244 251
250 250 250 250 251 252 253 255 256 257 258 259 259 261 261 259 257 256 253 249 244 240 236 233 226 223 219 217 217 216 214 214 212 205 199 202 205 211 213 224 233 241 251
Height
1508 1508 1508 1508 1508 1507 1507 1506 1506 1505 1504 1503 1503 1502 1501 1500 1499 1498 1497 1496 1495 1494 1493 1492 1491 1490 1489 1488 1487 1486 1485 1484 1482 1480 1478 1476 1474 1472 1470 1468 1466 1464 1462
1505 1505 1505 1504 1504 1503 1503 1503 1502 1501 1501 1500 1499 1498 1497 1496 1495 1494 1493 1492 1491 1490 1489 1488 1487 1486 1485 1484 1483 1482 1481 1480 1478 1476 1474 1472 1470 1469 1466 1464 1462 1460 1458
1502 1501 1501 1501 1500 1500 1499 1499 1498 1497 1497 1496 1495 1494 1493 1492 1491 1490 1489 1488 1487 1486 1485 1484 1483 1482 1481 1480 1479 1478 1477 1476 1474 1472 1470 1468 1466 1465 1463 1461 1458 1456 1454
1498 1498 1497 1497 1496 1496 1495 1495 1494 1493 1492 1492 1491 1490 1489 1488 1487 1486 1485 1484 1483 1482 1481 1480 1479 1478 1477 1476 1475 1473 1472 1471 1470 1468 1466 1464 1462 1461 1459 1457 1454 1452 1450
1495 1494 1494 1493 1492 1491 1491 1490 1489 1489 1488 1487 1486 1485 1484 1483 1482 1481 1480 1479 1478 1477 1476 1475 1474 1473 1472 1471 1470 1469 1468 1467 1465 1464 1462 1460 1459 1457 1455 1453 1450 1448 1445
1491 1490 1489 1488 1488 1487 1486 1485 1485 1484 1483 1482 1481 1480 1479 1478 1477 1476 1475 1474 1473 1472 1471 1470 1469 1468 1467 1466 1465 1464 1463 1462 1461 1460 1458 1457 1455 1454 1452 1450 1447 1445 1442
1486 1486 1485 1484 1483 1483 1482 1481 1480 1479 1478 1477 1477 1476 1474 1473 1472 1471 1470 1469 1468 1467 1466 1465 1464 1463 1462 1461 1460 1459 1458 1457 1457 1456 1454 1453 1451 1450 1448 1446 1444 1442 1439
1482 1481 1481 1480 1479 1478 1477 1476 1475 1475 1474 1473 1472 1471 1469 1468 1467 1466 1465 1464 1462 1461 1460 1459 1459 1457 1457 1456 1455 1454 1453 1452 1451 1450 1449 1448 1447 1445 1444 1442 1440 1438 1435
1478 1477 1477 1476 1475 1474 1473 1472 1471 1470 1469 1468 1467 1466 1465 1464 1463 1461 1460 1458 1457 1456 1455 1454 1453 1452 1451 1451 1450 1448 1448 1447 1446 1445 1444 1443 1442 1441 1440 1438 1436 1434 1432
1474 1473 1472 1471 1470 1469 1468 1467 1466 1465 1464 1463 1462 1461 1460 1459 1458 1456 1455 1453 1452 1450 1449 1448 1448 1447 1446 1445 1444 1443 1442 1442 1441 1440 1439 1438 1437 1436 1435 1434 1432 1431 1428
1470 1469 1468 1467 1466 1465 1464 1463 1461 1460 1459 1458 1457 1456 1454 1453 1452 1451 1450 1448 1447 1445 1444 1443 1442 1441 1440 1440 1439 1438 1437 1437 1436 1435 1434 1433 1432 1431 1430 1429 1428 1427 1425
1466 1465 1464 1463 1462 1460 1459 1458 1457 1455 1454 1453 1451 1450 1449 1448 1447 1446 1445 1443 1442 1440 1438 1437 1436 1436 1435 1434 1434 1433 1433 1432 1431 1430 1429 1429 1428 1427 1426 1425 1423 1422 1421
1461 1460 1460 1459 1457 1456 1454 1453 1452 1450 1449 1447 1446 1444 1443 1442 1441 1440 1439 1437 1436 1435 1433 1432 1431 1430 1430 1429 1428 1428 1427 1427 1426 1425 1424 1424 1423 1422 1421 1420 1419 1418 1416
1457 1456 1455 1454 1452 1451 1450 1448 1447 1445 1444 1442 1441 1439 1437 1436 1435 1434 1433 1432 1430 1429 1428 1426 1426 1425 1424 1423 1423 1423 1422 1422 1421 1420 1420 1419 1419 1418 1417 1416 1415 1413 1412
1452 1451 1450 1449 1447 1446 1444 1443 1441 1440 1439 1437 1435 1434 1432 1430 1430 1429 1427 1426 1425 1424 1422 1421 1420 1419 1418 1418 1417 1417 1417 1416 1416 1416 1415 1415 1414 1413 1413 1412 1411 1409 1408
1446 1446 1444 1443 1442 1440 1439 1437 1436 1435 1433 1432 1430 1429 1426 1425 1424 1423 1421 1420 1419 1418 1417 1415 1414 1414 1413 1412 1412 1412 1412 1411 1411 1411 1410 1410 1409 1409 1408 1407 1406 1405 1404
1441 1440 1439 1438 1437 1435 1434 1432 1430 1429 1427 1426 1424 1423 1421 1420 1418 1417 1415 1414 1413 1412 1410 1409 1408 1408 1408 1407 1407 1407 1406 1406 1406 1406 1405 1405 1405 1404 1404 1403 1402 1401 1400
1435 1434 1433 1432 1431 1429 1428 1426 1425 1423 1421 1419 1418 1417 1415 1414 1412 1411 1410 1408 1406 1406 1404 1404 1403 1403 1402 1402 1402 1401 1401 1401 1401 1401 1400 1400 1400 1400 1399 1398 1398 1397 1396
1429 1429 1427 1426 1425 1424 1422 1421 1419 1417 1415 1414 1412 1411 1409 1407 1406 1405 1404 1402 1400 1399 1399 1398 1397 1397 1397 1397 1396 1396 1396 1396 1396 1396 1396 1396 1395 1395 1395 1394 1393 1392 1391
1423 1422 1421 1420 1419 1417 1416 1415 1413 1412 1410 1408 1406 1405 1403 1401 1400 1398 1398 1396 1395 1394 1393 1392 1392 1391 1391 1391 1391 1391 1391 1391 1391 1391 1391 1391 1391 1390 1390 1389 1389 1388 1387
1417 1416 1415 1414 1412 1411 1410 1408 1407 1406 1404 1402 1401 1399 1398 1396 1394 1392 1391 1390 1389 1388 1387 1387 1386 1386 1386 1385 1386 1386 1386 1386 1386 1386 1386 1386 1386 1386 1385 1385 1385 1384 1383
1410 1409 1408 1407 1406 1405 1404 1402 1401 1399 1398 1396 1394 1393 1391 1390 1388 1386 1385 1384 1383 1382 1382 1381 1380 1380 1380 1380 1380 1380 1381 1381 1381 1381 1382 1382 1382 1381 1381 1381 1380 1380 1379
1404 1402 1401 1400 1399 1398 1397 1396 1394 1393 1392 1390 1388 1387 1385 1383 1382 1380 1379 1378 1377 1376 1376 1375 1374 1374 1374 1375 1375 1376 1376 1376 1377 1377 1377 1377 1377 1377 1377 1377 1377 1376 1376
1397 1396 1395 1393 1392 1391 1390 1389 1388 1387 1385 1384 1382 1381 1379 1377 1376 1374 1373 1372 1371 1370 1370 1369 1369 1369 1369 1369 1370 1371 1371 1372 1372 1372 1373 1373 1373 1373 1373 1373 1373 1373 1372
1390 1389 1388 1387 1386 1385 1384 1383 1381 1380 1379 1377 1376 1375 1373 1372 1370 1369 1367 1366 1366 1365 1364 1364 1364 1364 1364 1365 1365 1366 1367 1367 1368 1368 1369 1369 1370 1370 1370 1370 1369 1369 1369
1384 1383 1382 1381 1380 1379 1378 1376 1375 1374 1373 1371 1370 1369 1367 1366 1364 1363 1362 1361 1360 1360 1359 1359 1359 1359 1360 1360 1361 1362 1363 1363 1364 1364 1365 1366 1366 1366 1366 1366 1366 1366 1365